Regional Weather Roundup
Issued by NWS

Home | Current Version | Previous Version | Text Only | Print | Product List | Glossary On
Versions: 1 2 3 4 5 6 7 8 9 10 11 12 13 14 15 16 17 18 19 20 21 22 23 24 25 26 27 28 29 30 31 32 33 34 35 36 37 38 39 40 41 42 43 44 45 46 47 48 49 50
000
ASUS43 KLMK 311610
RWRKY
KENTUCKY REGIONAL WEATHER ROUNDUP
NATIONAL WEATHER SERVICE LOUISVILLE KY
1200 PM EDT TUE MAR 31 2015

NOTE "FAIR" INDICATES FEW OR NO CLOUDS BELOW 12,000 FEET
WITH NO SIGNIFICANT WEATHER AND/OR OBSTRUCTIONS TO VISIBILITY.

KYZ001>023-026-027-061>063-070>075-311700-
WESTERN AND SOUTH CENTRAL KENTUCKY

CITY           SKY/WX    TMP DP  RH WIND       PRES   REMARKS
PADUCAH        MOSUNNY   69  49  48 W13       29.96S
HENDERSON      MOSUNNY   66  43  42 W15G21    29.92S
OWENSBORO      SUNNY     68  46  45 W13G22    29.92S
HOPKINSVILLE   SUNNY     70  52  53 W14       29.95F
BOWLING GREEN  SUNNY     70  49  47 W14G23    29.94F
GLASGOW        SUNNY     68  48  47 W16G22    29.94F
$$

KYZ024-025-028>034-038-045-046-053-311700-
NORTH CENTRAL KENTUCKY

CITY           SKY/WX    TMP DP  RH WIND       PRES   REMARKS
LOUISVILLE/SDF SUNNY     68  39  34 W17G25    29.87F
LOUISVILLE/LOU SUNNY     65  39  38 W16G25    29.87F
FORT KNOX      NOT AVBL
$$

KYZ035>037-039>044-047>052-055>060-089>105-311700-
NORTHEAST KENTUCKY

CITY           SKY/WX    TMP DP  RH WIND       PRES   REMARKS
LEXINGTON      SUNNY     66  39  37 W20G25    29.86F
COVINGTON      SUNNY     64  38  38 W15       29.80F
FRANKFORT      SUNNY     66  37  34 SW16G28   29.84F
$$

KYZ054-064>069-076>088-106>120-311700-
SOUTHEAST KENTUCKY

CITY           SKY/WX    TMP DP  RH WIND       PRES   REMARKS
JACKSON        SUNNY    N/A N/A N/A W12G26    29.89F
LONDON         SUNNY     67  33  28 SW15G25   29.94F
SOMERSET       SUNNY     64  41  42 W16G22    29.95F
MIDDLESBORO    SUNNY     63  36  37 S12G20    29.97S
MONTICELLO     SUNNY     69  46  43 SW16G23   29.97F
$$



USA.gov is the U.S. government's official web portal to all federal, state and local government web resources and services.